Other Public Products
Issued by NWS Grand Forks, ND

Home | Current Version | Previous Version | Text Only | Print | Product List | Glossary On
Versions: 1 2 3 4 5 6 7 8 9 10 11 12 13 14 15 16 17 18 19 20 21 22 23 24 25 26 27 28 29 30 31 32 33 34 35 36 37 38 39 40 41 42 43 44 45 46 47 48 49 50
000
FPUS83 KFGF 051210
OPUFGF
PRAIRIE TO PINES WEATHER ROUNDUP
NATIONAL WEATHER SERVICE EASTERN NORTH DAKOTA/GRAND FORKS ND
700 AM CDT THU MAY 05 2016

 **SATELLITE DATA USED TO AUGMENT SKY COVER AT AUTOMATED STATIONS**
 *****  WEATHER ACROSS EASTERN NORTH DAKOTA  *****

CITY           SKY/WX    TMP DP  RH WIND       PRES   REMARKS
GRAND FORKS    PTCLDY    52  36  54 S9        29.84R
6HR MIN TEMP:  49; 6HR MAX TEMP:  55;

GRAND FORKS AF CLEAR     64  43  45 W14G24    29.82R
GRAND CITY NWS NOT AVBL
BUXTON         NOT AVBL
DEVILS LAKE    PTCLDY    55  45  68 SW9       29.87R
6HR MIN TEMP:  54; 6HR MAX TEMP:  59;

FARGO          CLEAR     54  32  43 S12       29.90S
6HR MIN TEMP:  51; 6HR MAX TEMP:  57;

WAHPETON ARPT  SUNNY     46  30  53 SE8       29.96S
$$

 *****  WEATHER ACROSS CENTRAL AND WESTERN NORTH DAKOTA  *****

CITY           SKY/WX    TMP DP  RH WIND       PRES   REMARKS
JAMESTOWN      CLEAR     57  42  57 W8        29.90R
6HR MIN TEMP:  50; 6HR MAX TEMP:  59;

BISMARCK       CLEAR     51  44  77 CALM      29.92S
6HR MIN TEMP:  49; 6HR MAX TEMP:  63;

MINOT          CLEAR     65  42  43 SW17      29.84S
6HR MIN TEMP:  65; 6HR MAX TEMP:  70;

MINOT AFB      CLEAR     62  44  52 SW15      29.82S
6HR MIN TEMP:  59; 6HR MAX TEMP:  62;

GARRISON         N/A     53  43  68 CALM      29.89S
6HR MIN TEMP:  48; 6HR MAX TEMP:  55;

WILLISTON      CLEAR     50  42  74 SW5       29.85F
6HR MIN TEMP:  46; 6HR MAX TEMP:  64;

DICKINSON      CLEAR     50  41  71 S13       29.90S
6HR MIN TEMP:  49; 6HR MAX TEMP:  56;

HETTINGER      CLEAR     51  40  65 SE5       29.96R
6HR MIN TEMP:  43; 6HR MAX TEMP:  56;

$$

 *****  OTHER OBSERVATIONS NORTHEAST NORTH DAKOTA  *****

CITY           SKY/WX    TMP DP  RH WIND       PRES   REMARKS
WALHALLA       FAIR      66  45  45 W21G36    29.77S
LANGDON        FAIR      55  45  67 SW13      29.85R
CAVALIER       FAIR      68  45  42 W25G32    29.78S
GRAFTON        FAIR      63  46  55 W17G23    29.82R
CANDO          FAIR      50  45  81 W6        29.88S
FORT TOTTEN      N/A     58  43  56 SW6       29.95S
ROLLA          FAIR      59  41  51 SW20      29.84S
RUGBY          FAIR      54  45  71 SW6       29.86S
 ***** THE ABOVE OBSERVATIONS ARE NON NWS ARE NOT QUALITY
        CONTROLLED AND MAY MIS-REPORT RAIN FOR SNOW...
$$

 *****  OTHER OBSERVATIONS SOUTHEAST NORTH DAKOTA *****

CITY           SKY/WX    TMP DP  RH WIND       PRES   REMARKS
COOPERSTOWN    NOT AVBL
VALLEY CITY    FAIR      50  45  81 SW6       29.92S
OAKES            N/A    N/A N/A N/A MISG        N/A
GWINNER        FAIR      50  37  62 SW14      29.94R
SHEYENNE NWR     N/A     49  37  63 SW6       29.95S
BUFFALO        NOT AVBL
WYNDMERE       NOT AVBL
 ***** THE ABOVE OBSERVATIONS ARE NON NWS ARE NOT QUALITY
       CONTROLLED AND MAY MIS-REPORT RAIN FOR SNOW...
$$

  *****  WEATHER ACROSS NORTHERN MINNESOTA  *****

CITY           SKY/WX    TMP DP  RH WIND       PRES   REMARKS
FLAG ISLAND    CLEAR     46  37  71 S17       29.83F
WARROAD        CLEAR     54  34  47 S12G17    29.85S
ROSEAU         CLEAR     54  34  47 S17       29.83F
HALLOCK        CLEAR     52  32  46 S13       29.80S
THF RVR FALLS  CLEAR     54  30  40 S6        29.89R
6HR MIN TEMP:  48; 6HR MAX TEMP:  54;

HALSTAD        NOT AVBL
FOSSTON        PTCLDY    54  28  37 SE10      29.93R
BAUDETTE       CLOUDY    45  34  65 S6        29.90F
6HR MIN TEMP:  43; 6HR MAX TEMP:  51; 6HR PCP:  0.01;

WASKISH        CLOUDY    48  36  61 SE5       29.94R
CROOKSTON      CLEAR     55  34  44 S15       29.88R
$$
  *****  WEATHER ACROSS CENTRAL AND WEST MINNESOTA  *****

CITY           SKY/WX    TMP DP  RH WIND       PRES   REMARKS
BEMIDJI        MOCLDY    51  26  36 S8        29.97S
PARK RAPIDS    CLOUDY    47  27  45 SE8       29.99R
6HR MIN TEMP:  40; 6HR MAX TEMP:  49;

WADENA         PTCLDY    46  30  53 CALM      30.00R
DETROIT LAKES  CLEAR     48  37  66 S7        29.97S
MOORHEAD       CLEAR     50  34  53 S14       29.93S
FERGUS FALLS   PTCLDY    52  36  54 SE8       29.96S
ELBOW LAKE     FAIR      48  33  55 E9        30.00R
6HR MIN TEMP:  43; 6HR MAX TEMP:  50;

MORRIS MN      CLEAR     43  34  70 SE6       29.99R
STAPLES        PTCLDY    39  30  70 CALM      30.01R
WHEATON        CLEAR     54  36  50 S9        29.98F
$$
  *****  WEATHER ELSEWHERE ACROSS MINNESOTA  *****

CITY           SKY/WX    TMP DP  RH WIND       PRES   REMARKS
DULUTH         LGT RAIN  43  35  73 SW10      30.00S
6HR MIN TEMP:  36; 6HR MAX TEMP:  43; 6HR PCP:  0.07;

INTRNTL FALLS  CLOUDY    48  28  46 S9        29.87F
6HR MIN TEMP:  41; 6HR MAX TEMP:  48; 6HR PCP:  0.01;

ELY            LGT RAIN  43  34  70 CALM      29.99R
CLOQUET        CLOUDY    41  34  75 SW7       30.00F
BRAINERD       CLOUDY    45  31  58 W3        30.02R
6HR MIN TEMP:  34; 6HR MAX TEMP:  45;

HIBBING        CLOUDY    39  32  76 CALM      29.98S
6HR MIN TEMP:  29; 6HR MAX TEMP:  39; 6HR PCP: TRACE;

ALEXANDRIA     PTCLDY    48  33  56 S3        30.01R
6HR MIN TEMP:  44; 6HR MAX TEMP:  49;

SAINT CLOUD    CLEAR     40  34  79 S5        30.04R
6HR MIN TEMP:  36; 6HR MAX TEMP:  41;

MINNEAPOLIS    CLOUDY    50  26  39 CALM      30.06R
6HR MIN TEMP:  45; 6HR MAX TEMP:  51;

$$

  *****  WEATHER ACROSS SOUTH DAKOTA  *****

CITY           SKY/WX    TMP DP  RH WIND       PRES   REMARKS
SIOUX FALLS    PTCLDY    41  37  86 CALM      30.04S
6HR MIN TEMP:  38; 6HR MAX TEMP:  46;

BROOKINGS      CLEAR     41  35  79 CALM      30.03R
WATERTOWN      CLEAR     43  35  73 SE7       30.01R
6HR MIN TEMP:  41; 6HR MAX TEMP:  48;

HURON          CLEAR     45  40  82 MISG      30.00S
6HR MIN TEMP:  42; 6HR MAX TEMP:  50;

SISSETON         N/A     59  35  40 SW6       29.94S
ABERDEEN       CLEAR     44  38  79 S6        29.97S
6HR MIN TEMP:  40; 6HR MAX TEMP:  47;

MITCHELL       CLEAR     44  40  85 SE3       30.03R
PIERRE         CLEAR     42  38  85 CALM      29.98S
6HR MIN TEMP:  42; 6HR MAX TEMP:  52;

MOBRIDGE       CLEAR     50  45  83 SE9       29.93F
RAPID CITY     CLEAR     45  39  79 SE6       29.96S
6HR MIN TEMP:  43; 6HR MAX TEMP:  51;

$$

  *****  SOME WEATHER IN NEARBY STATES *****

CITY           SKY/WX    TMP DP  RH WIND       PRES   REMARKS
GLASGOW MT     CLEAR     51  40  65 E13       29.81R
6HR MIN TEMP:  51; 6HR MAX TEMP:  60;

GREAT FALLS MT CLOUDY    43  37  79 W8        29.88R
6HR MIN TEMP:  43; 6HR MAX TEMP:  60;

CHEYENNE WY    CLOUDY    48  34  58 W13       30.15S
6HR MIN TEMP:  45; 6HR MAX TEMP:  52;

SCOTTSBLUFF NE CLEAR     47  39  74 E7        30.06S
6HR MIN TEMP:  46; 6HR MAX TEMP:  52;

OMAHA NE       PTCLDY    43  39  86 N3        30.07R
6HR MIN TEMP:  42; 6HR MAX TEMP:  52;

DES MOINES IA  PTCLDY    47  34  60 CALM      30.06R
6HR MIN TEMP:  44; 6HR MAX TEMP:  55;

DAVENPORT IA   SUNNY     40  35  83 N3        30.02R
6HR MIN TEMP:  37; 6HR MAX TEMP:  45;

CHICAGO IL     MOSUNNY   42  34  73 N15       29.95R
6HR MIN TEMP:  41; 6HR MAX TEMP:  43;

EAU CLAIRE WI  MOSUNNY   37  32  82 CALM      30.05R
6HR MIN TEMP:  30; 6HR MAX TEMP:  40;

LA CROSSE WI   SUNNY     42  35  76 CALM      30.05R
6HR MIN TEMP:  36; 6HR MAX TEMP:  49;

$$

  *****  SOME NATIONAL WEATHER *****

CITY           SKY/WX    TMP DP  RH WIND       PRES   REMARKS
LA GUARDIA NY  CLOUDY    48  45  87 NE12      29.70S               C1F1C2F2C3F3C4F4C5F5C6F6C7F7C8F8C9F9CaFaCbFbCcFcCdFdCe!



USA.gov is the U.S. government's official web portal to all federal, state and local government web resources and services.